Location: Newark
(40.7060°N, 73.9980°W)
Time: 16:23:48
(UTC+00:00)

X-37B - Pass Details

Date: 14 March 2021
Orbit: 380 x 394 km, 45.0° (Epoch: 07 April)

Event Time Altitude Azimuth Distance (km) Brightness Sun altitude
Rises 01:05:08 0° 268° (W) 2,270 5.6 -24.0°
Reaches altitude 10° 01:07:15 10° 275° (W) 1,419 4.4 -24.4°
Enters shadow 01:09:12 30° 298° (WNW) 737 2.6 -24.7°
